Location: Unspecified
(35.7250°N, 0.0000°E)
Time: 10:20:37
(UTC+00:00)

Vanguard 1 - Pass Details

Date: 28 June 2019
Orbit: 653 x 3830 km, 34.2° (Epoch: 17 October)

Event Time Altitude Azimuth Distance (km) Brightness Sun altitude
Rises 00:33:54 0° 236° (SW) 7,904 14.3 -30.5°
Enters shadow 00:35:59 - 235° (SW) 7,534 14.2 -30.5°
Reaches altitude 10° 00:39:20 10° 234° (SW) 6,930 - -30.4°
Exits shadow 00:45:58 24° 230° (SW) 5,720 13.5 -30.1°
Maximum altitude 01:02:12 67° 158° (SSE) 3,405 12.4 -29.3°
Drops below altitude 10° 01:17:07 10° 80° (E) 4,798 13.9 -28.4°
Sets 01:20:05 0° 78° (ENE) 5,465 14.3 -28.2°
